Степняк

Казахстан     52°49′55″N   70°47′00″E
темп.,
°C
ветер,
м/с
пор.,
м/с
влажн.,
%
обл.,
%
осадки,
мм/ч
давл.,
гПа
погр.,
м
2 марта, вт
вт223:00−16з229594 0.3 101725
02:00−18з349622 0.0 101848
05:00−19з349611 0.0 101839
08:00−16зюз239683 0.1 101885
11:00−13юз359380 0.1 1017269
14:00−11зюз469288 0.0 1016327
17:00−13зюз489389 0.1 1016262
20:00−14зюз5109495 0.0 1016252
3 марта, ср
ср323:00−15зюз5119495 0.0 1017261
02:00−18юз7139585 0.0 1017255
05:00−19юз9159483 0.0 1018299
08:00−20юз9169584 0.0 1017283
11:00−16юз10159489 0.0 1017339
14:00−11юз101790100 0.0 1016516
17:00−8юз91788100 0.1 1015731
20:00−6юз91789100 0.1 1014848
4 марта, чт
чт423:00−4юз91691100 0.1 1013884
02:00−3юз81590100 0.1 1011908
05:00−2юз91594100 0.4 1011865
08:00−3юз111892100 0.3 1009994
11:00−2юз121891100 0.5 10091112
14:00−1ююз121890100 0.3 10071224
17:00−1юз101592100 1.0 10061068
20:00−2юз7149695 0.6 1006709
5 марта, пт
пт523:00−4юз8159294 0.8 1007687
02:00−8зюз7148683 0.1 1010391
05:00−12зюз6129249 0.1 1014269
08:00−13зюз815890 0.0 1016334
11:00−9юз12208714 0.0 1016672
14:00−6юз14238798 0.0 1015844
17:00−5юз14238599 0.1 1015825
20:00−6юз142287100 0.1 1016861
6 марта, сб
сб623:00−6юз132186100 0.1 1016864
02:00−6юз122087100 0.1 1016778
05:00−7зюз111988100 0.1 1015638
08:00−7зюз10178993 0.0 1015516
11:00−5зюз9159195 0.1 1016550
14:00−4зюз71190100 0.1 1017624
17:00−5зюз5991100 0.1 1018481
20:00−7юз5895100 0.0 1018188